[[{"header":{"parameterUnit":"m.s-1","parameterCategory":1,"la1":30.2991,"la2":30.254,"lo1":-89.0895,"lo2":-89.0444,"dy":0.0017,"dx":0.0017,"nx":28,"ny":28,"refTime":"2024-06-03T03:00:00:Z","depth":0,"parameterNumber":2,"parameterNumberName":"U-component_of_WINDS"},"data":[0,0,0,0,0,0,0,0,0,0,0,0,0,0,0,0,0,0,0,0,0,0,0,0,0,0,0,0,0,0,0,0,0,0,0,0,0,0,0,0,0,0,0,0,0,0,0,0,0,0,0,0,0,0,0,0,0,0,-1.9581,-1.9581,0,-1.9622,-1.9623,-1.9623,-1.9643,-1.9643,-1.9643,-1.9643,-1.9688,-1.9689,-1.969,0,0,0,0,0,0,0,0,0,0,0,0,0,-1.9521,-1.9522,-1.9581,-1.9581,-1.9582,-1.9622,-1.9623,-1.9623,-1.9643,-1.9643,-1.9643,-1.9643,-1.9688,-1.9689,-1.969,0,0,0,0,0,0,0,0,0,0,0,0,0,-1.9553,-1.9522,-1.9581,-1.9596,-1.9598,-1.9622,-1.9623,-1.9623,-1.9643,-1.9643,-1.9643,-1.9643,-1.9687,-1.9689,-1.9691,-1.9703,0,0,-1.9696,-1.9697,0,0,0,0,0,0,0,0,-1.9551,-1.9555,-1.9593,-1.9595,-1.9597,-1.9627,-1.9618,-1.965,-1.9643,-1.9626,-1.9643,-1.9643,-1.9668,-1.9671,-1.9679,-1.9705,-1.9707,-1.9696,-1.9698,-1.9698,-1.9699,0,0,0,0,0,0,0,-1.9549,-1.9554,-1.9597,-1.9594,-1.9596,-1.9602,-1.9607,-1.9624,-1.9647,-1.9627,-1.9629,-1.9633,-1.9669,-1.9678,-1.9681,-1.9708,-1.9696,-1.9698,-1.9699,-1.97,-1.9746,-1.9747,0,0,0,0,0,0,-1.9544,-1.9551,-1.9596,-1.9598,-1.9574,-1.9603,-1.9608,-1.9618,-1.9647,-1.9651,-1.9633,-1.9634,-1.9674,-1.9678,-1.9682,-1.9699,-1.9698,-1.97,-1.9701,-1.9746,-1.9746,-1.9747,0,0,0,0,0,0,-1.9542,-1.9547,-1.9594,-1.9575,-1.9582,-1.9604,-1.9615,-1.9619,-1.9627,-1.9651,-1.9656,-1.9638,-1.9675,-1.968,-1.9698,-1.9701,-1.9701,-1.9703,-1.9746,-1.9746,-1.9746,-1.9732,0,0,0,0,0,0,-1.9541,-1.9547,-1.9551,-1.9575,-1.9583,-1.9608,-1.9615,-1.9619,-1.963,-1.9631,-1.9656,-1.9661,-1.9675,-1.9695,-1.9699,-1.9703,-1.9704,-1.9746,-1.9746,-1.9746,-1.9732,-1.9731,-1.9731,0,0,0,0,0,-1.9538,-1.9546,-1.9551,-1.9556,-1.9588,-1.9608,-1.9612,-1.9628,-1.963,-1.9635,-1.965,-1.966,-1.97,-1.9696,-1.9702,-1.9706,-1.9746,-1.9746,-1.9746,-1.9732,-1.9732,-1.9731,0,0,0,0,0,0,-1.9522,-1.9549,-1.9556,-1.9571,-1.9587,-1.9611,-1.9618,-1.9627,-1.9643,-1.9644,-1.9663,-1.9669,-1.9685,-1.9698,-1.9694,-1.972,-1.9724,-1.9725,-1.9711,-1.9711,-1.971,-1.9707,-1.9706,0,0,0,0,0,-1.952,-1.9533,-1.9556,-1.9568,-1.9575,-1.9595,-1.9604,-1.9615,-1.9633,-1.964,-1.9657,-1.9674,-1.9691,-1.9702,-1.9718,-1.9734,-1.974,-1.974,-1.9739,-1.9739,-1.974,-1.975,-1.975,-1.9747,-1.9747,-1.9747,0,0,-1.9517,-1.9533,-1.954,-1.9565,-1.9579,-1.9592,-1.9601,-1.9615,-1.9626,-1.9642,-1.966,-1.9673,-1.9694,-1.9711,-1.972,-1.9722,-1.9742,-1.9739,-1.9738,-1.974,-1.975,-1.975,-1.975,-1.9748,-1.9748,-1.9748,0,0,-1.9517,-1.953,-1.9541,-1.9555,-1.9575,-1.9588,-1.9591,-1.9614,-1.9623,-1.9641,-1.9654,-1.9668,-1.9696,-1.971,-1.9721,-1.9727,-1.9737,-1.9732,-1.9729,-1.9739,-1.9739,-1.9739,-1.9742,-1.9742,-1.9733,-1.9733,-1.9733,0,-1.951,-1.953,-1.9546,-1.956,-1.957,-1.9585,-1.9597,-1.961,-1.9635,-1.9642,-1.9645,-1.968,-1.9695,-1.9716,-1.9718,-1.9726,-1.973,-1.973,-1.9737,-1.9738,-1.9738,-1.9741,-1.9742,-1.9733,-1.9733,-1.9733,-1.9733,0,-1.9521,-1.9535,-1.9542,-1.9565,-1.9576,-1.9589,-1.9607,-1.9617,-1.9627,-1.964,-1.9659,-1.9678,-1.9698,-1.9704,-1.9714,-1.9727,-1.9728,-1.9733,-1.9738,-1.9738,-1.974,-1.9742,-1.9732,-1.9732,-1.9732,-1.9732,0,0,-1.9512,-1.9544,-1.9546,-1.9557,-1.958,-1.9592,-1.9605,-1.9625,-1.9633,-1.965,-1.9663,-1.9686,-1.9692,-1.9704,-1.9716,-1.9724,-1.9729,-1.9729,-1.973,-1.9729,-1.9744,-1.974,-1.974,-1.9735,-1.9735,-1.9735,-1.9742,0,-1.9516,-1.954,-1.9555,-1.9573,-1.9586,-1.9601,-1.9613,-1.9629,-1.9642,-1.9656,-1.9671,-1.9687,-1.9693,-1.9701,-1.971,-1.9726,-1.9732,-1.9726,-1.9747,-1.9748,-1.9741,-1.9742,-1.9737,-1.9743,-1.9744,-1.9744,-1.9744,0,-1.9524,-1.9539,-1.9559,-1.9581,-1.9587,-1.9597,-1.9617,-1.963,-1.9649,-1.9658,-1.9672,-1.9684,-1.97,-1.9702,-1.9725,-1.9721,-1.9731,-1.974,-1.9741,-1.9743,-1.9746,-1.9745,-1.9745,-1.9746,-1.9746,-1.9746,-1.9746,0,-1.9515,-1.9541,-1.9556,-1.9565,-1.9592,-1.9598,-1.961,-1.9629,-1.964,-1.9657,-1.9665,-1.9684,-1.9694,-1.971,-1.9727,-1.9727,-1.9748,-1.9752,-1.9757,-1.9756,-1.976,-1.976,-1.9762,-1.9766,-1.9766,-1.9766,-1.9766,0,-1.9518,-1.9529,-1.9553,-1.9562,-1.9576,-1.9593,-1.9606,-1.9619,-1.9636,-1.9649,-1.9663,-1.9675,-1.9697,-1.9712,-1.9726,-1.9743,-1.9747,-1.9756,-1.9759,-1.9754,-1.9753,-1.9761,-1.9761,-1.9767,-1.9767,-1.9767,-1.9766,0,-1.9511,-1.9527,-1.9544,-1.9568,-1.9574,-1.9583,-1.9604,-1.9614,-1.9627,-1.9643,-1.9648,-1.967,-1.9688,-1.9707,-1.9732,-1.9741,-1.9758,-1.9763,-1.9751,-1.9753,-1.9756,-1.9756,-1.9764,-1.9766,-1.9769,-1.9769,-1.9769,0,-1.9511,-1.952,-1.9545,-1.9554,-1.9564,-1.9579,-1.959,-1.9608,-1.9619,-1.9641,-1.9649,-1.9668,-1.9684,-1.9713,-1.9732,-1.9751,-1.9757,-1.9758,-1.976,-1.9755,-1.9757,-1.9756,-1.9758,-1.9758,-1.9758,-1.9757,-1.9757,0,-1.9511,-1.9518,-1.9533,-1.9551,-1.9563,-1.9578,-1.9594,-1.9601,-1.9622,-1.9633,-1.9652,-1.9664,-1.9689,-1.9709,-1.973,-1.9744,-1.9754,-1.9757,-1.9759,-1.9754,-1.9747,-1.9751,-1.9749,-1.9756,-1.9757,-1.9757,-1.9757,-1.9757,-1.9508,-1.9516,-1.9535,-1.9551,-1.9564,-1.9578,-1.9589,-1.9604,-1.9619,-1.964,-1.965,-1.9668,-1.9688,-1.9718,-1.9731,-1.9747,-1.975,-1.9753,-1.9754,-1.9754,-1.9753,-1.9744,-1.9751,-1.9751,-1.9751,-1.9751,-1.9751,0,-1.9508,-1.952,-1.9535,-1.9556,-1.9568,-1.9576,-1.9594,-1.9605,-1.962,-1.9638,-1.9653,-1.9675,-1.9693,-1.9714,-1.9734,-1.9742,-1.9748,-1.9747,-1.9747,-1.975,-1.9749,-1.9745,-1.9742,-1.9742,-1.9742,-1.9742,-1.9742,-1.9742,-1.9509,-1.9524,-1.9534,-1.9556,-1.9569,-1.9587,-1.9596,-1.961,-1.9623,-1.9646,-1.9661,-1.9674,-1.9693,-1.9715,-1.9733,-1.9738,-1.9745,-1.9743,-1.975,-1.9749,-1.975,-1.975,-1.9747,-1.9744,-1.9744,-1.975,-1.975,-1.975]},{"header":{"parameterUnit":"m.s-1","parameterCategory":1,"la1":30.2991,"la2":30.254,"lo1":-89.0895,"lo2":-89.0444,"dy":0.0017,"dx":0.0017,"nx":28,"ny":28,"refTime":"2024-06-03T03:00:00:Z","depth":0,"parameterNumber":3,"parameterNumberName":"V-component_of_WINDS"},"data":[0,0,0,0,0,0,0,0,0,0,0,0,0,0,0,0,0,0,0,0,0,0,0,0,0,0,0,0,0,0,0,0,0,0,0,0,0,0,0,0,0,0,0,0,0,0,0,0,0,0,0,0,0,0,0,0,0,0,1.909,1.909,0,1.9075,1.9075,1.9075,1.9078,1.9078,1.9078,1.9079,1.906,1.9059,1.9058,0,0,0,0,0,0,0,0,0,0,0,0,0,1.9119,1.9118,1.909,1.909,1.909,1.9075,1.9075,1.9075,1.9078,1.9078,1.9078,1.9079,1.906,1.9059,1.9058,0,0,0,0,0,0,0,0,0,0,0,0,0,1.9105,1.9118,1.909,1.909,1.9089,1.9075,1.9075,1.9075,1.9078,1.9078,1.9078,1.9079,1.906,1.9059,1.9058,1.9043,0,0,1.9055,1.9054,0,0,0,0,0,0,0,0,1.9106,1.9104,1.909,1.909,1.9089,1.9079,1.9078,1.9064,1.9077,1.9082,1.9079,1.9079,1.9066,1.9064,1.906,1.9042,1.9041,1.9055,1.9054,1.9053,1.9053,0,0,0,0,0,0,0,1.9107,1.9105,1.9084,1.909,1.9089,1.9089,1.9088,1.9075,1.9071,1.9082,1.9082,1.908,1.9066,1.9061,1.906,1.9041,1.9055,1.9054,1.9053,1.9053,1.9009,1.9009,0,0,0,0,0,0,1.9108,1.9105,1.9085,1.9084,1.9099,1.9088,1.9087,1.9082,1.9072,1.9071,1.908,1.908,1.9063,1.9061,1.9059,1.9041,1.9054,1.9052,1.9052,1.901,1.9009,1.9009,0,0,0,0,0,0,1.9109,1.9106,1.9085,1.9095,1.9092,1.9087,1.9082,1.9081,1.9077,1.907,1.9069,1.9076,1.9063,1.9061,1.9047,1.904,1.9052,1.9051,1.901,1.901,1.9009,1.9003,0,0,0,0,0,0,1.911,1.9107,1.9101,1.9095,1.9091,1.9074,1.9081,1.9081,1.9075,1.9076,1.9067,1.9066,1.9063,1.9049,1.9046,1.9039,1.905,1.9011,1.901,1.9009,1.9004,1.9003,1.9001,0,0,0,0,0,1.9111,1.91,1.9101,1.9098,1.9085,1.9074,1.9072,1.907,1.9075,1.9069,1.9065,1.9066,1.9041,1.9047,1.9044,1.9037,1.9011,1.901,1.9009,1.9005,1.9003,1.9001,0,0,0,0,0,0,1.9104,1.9099,1.91,1.9087,1.9081,1.9074,1.9067,1.9068,1.906,1.9061,1.9058,1.9056,1.9043,1.9038,1.9045,1.9021,1.9027,1.9025,1.9025,1.9023,1.9021,1.9023,1.9049,0,0,0,0,0,1.9102,1.9094,1.9089,1.9078,1.9075,1.9071,1.9066,1.9066,1.9059,1.9057,1.9051,1.9044,1.9035,1.9028,1.9019,1.9004,1.9002,1.8997,1.8995,1.8994,1.8993,1.8984,1.8982,1.9005,1.9005,1.9005,0,0,1.9095,1.9091,1.9086,1.9076,1.9072,1.9063,1.9069,1.906,1.9053,1.9055,1.9042,1.9038,1.9029,1.9015,1.9008,1.9011,1.8986,1.8993,1.8992,1.8991,1.8983,1.8981,1.8979,1.9005,1.9005,1.9005,0,0,1.908,1.9076,1.9066,1.9062,1.9056,1.9054,1.9051,1.9045,1.9042,1.903,1.9031,1.9023,1.9006,1.9001,1.8995,1.8978,1.8979,1.8975,1.8968,1.8959,1.8958,1.8956,1.895,1.8948,1.8974,1.8974,1.8974,0,1.9073,1.9061,1.9061,1.9052,1.9047,1.9049,1.9039,1.9035,1.9025,1.9021,1.9025,1.9005,1.8999,1.8984,1.898,1.8975,1.8972,1.8976,1.8958,1.8956,1.8955,1.8949,1.8947,1.8974,1.8974,1.8974,1.8974,0,1.9052,1.9044,1.9037,1.9029,1.9024,1.9014,1.9012,1.9006,1.9006,1.9003,1.899,1.8984,1.8974,1.897,1.897,1.8954,1.8956,1.8959,1.8964,1.8952,1.8947,1.8944,1.8973,1.8973,1.8973,1.8973,0,0,1.9032,1.9025,1.9022,1.9019,1.9012,1.9005,1.8995,1.8987,1.8982,1.8975,1.8967,1.8954,1.8956,1.895,1.8949,1.8942,1.8929,1.8945,1.8945,1.8943,1.8912,1.891,1.8907,1.893,1.8929,1.8929,1.8913,0,1.9016,1.9,1.9,1.8985,1.8977,1.8979,1.8971,1.8965,1.8963,1.8955,1.8952,1.8943,1.8947,1.8943,1.8936,1.8932,1.8923,1.8933,1.8921,1.8921,1.8923,1.8905,1.8902,1.8887,1.891,1.891,1.891,0,1.8995,1.8989,1.8974,1.8968,1.8965,1.8958,1.895,1.8943,1.8937,1.8935,1.8929,1.8929,1.8919,1.8925,1.891,1.8917,1.8912,1.8909,1.8909,1.8907,1.8914,1.8903,1.8882,1.888,1.8906,1.8907,1.8907,0,1.8982,1.897,1.8959,1.8956,1.895,1.8944,1.8941,1.8936,1.8931,1.8923,1.892,1.8911,1.8907,1.8899,1.8897,1.8902,1.8882,1.8888,1.888,1.888,1.8876,1.8876,1.8854,1.8872,1.8872,1.8872,1.8873,0,1.8964,1.8954,1.8953,1.8947,1.8936,1.8936,1.8925,1.8922,1.8917,1.8909,1.891,1.8903,1.89,1.8892,1.889,1.8878,1.8875,1.8873,1.8873,1.8873,1.8874,1.887,1.8871,1.8872,1.8872,1.8872,1.8872,0,1.8947,1.8946,1.8935,1.893,1.8929,1.8921,1.8917,1.891,1.8908,1.8898,1.8896,1.8892,1.8883,1.888,1.8868,1.8866,1.8852,1.8853,1.8855,1.8855,1.8847,1.8848,1.8822,1.8819,1.8839,1.8839,1.8839,0,1.8936,1.8929,1.8924,1.8919,1.8916,1.8909,1.8904,1.8904,1.8898,1.8891,1.8885,1.8876,1.8869,1.8854,1.8849,1.884,1.8841,1.8832,1.8839,1.884,1.884,1.8841,1.884,1.8831,1.8831,1.883,1.883,0,1.8916,1.8916,1.8909,1.8903,1.8898,1.8892,1.8887,1.8883,1.8882,1.8876,1.8867,1.8861,1.885,1.8841,1.8832,1.8828,1.8829,1.8828,1.8826,1.8826,1.8828,1.8827,1.8851,1.8829,1.8829,1.8829,1.8829,1.8829,1.8901,1.8895,1.8891,1.8884,1.888,1.8876,1.887,1.8867,1.886,1.8852,1.8851,1.8842,1.8836,1.8824,1.8819,1.8811,1.8813,1.881,1.8809,1.8808,1.8808,1.8829,1.8809,1.8809,1.881,1.881,1.881,0,1.8881,1.8879,1.8873,1.8866,1.8861,1.8863,1.8857,1.8852,1.8844,1.8839,1.8832,1.8822,1.8813,1.8809,1.88,1.8794,1.8795,1.8792,1.8792,1.8791,1.8806,1.8809,1.8792,1.8792,1.8792,1.8792,1.8792,1.8792,1.8871,1.8861,1.886,1.8848,1.8846,1.8837,1.8834,1.8829,1.8825,1.8814,1.8808,1.8805,1.88,1.8791,1.8783,1.8782,1.8778,1.8776,1.8775,1.8789,1.879,1.8792,1.8795,1.8775,1.8775,1.8761,1.876,1.876]}]]